Regional Weather Roundup
Issued by NWS

Home | Current Version | Previous Version | Graphics & Text | Print | Product List | Glossary On
Versions: 1 2 3 4 5 6 7 8 9 10 11 12 13 14 15 16 17 18 19 20 21 22 23 24 25 26 27 28 29 30 31 32 33 34 35 36 37 38 39 40 41 42 43 44 45 46 47 48 49 50
000
ASUS45 KTFX 020610
RWRMT
MONTANA REGIONAL WEATHER ROUNDUP
NATIONAL WEATHER SERVICE GREAT FALLS MT
1200 AM MDT THU JUL 02 2015

NOTE: "FAIR" INDICATES FEW OR NO CLOUDS BELOW 12000 FEET WITH NO
SIGNIFICANT WEATHER AND/OR OBSTRUCTIONS TO VISIBILITY.

MTZ001>007-043-020700-
WEST OF THE DIVIDE

CITY           SKY/WX    TMP DP  RH WIND       PRES   REMARKS
KALISPELL      CLEAR     74  53  48 N14       30.06R
MISSOULA       CLEAR     76  43  30 NW6       30.05R
BUTTE          CLEAR     69  49  48 NW8       30.21R
MULLAN PASS    CLEAR     68  38  33 CALM      30.25S
DEER LODGE       N/A     68  52  56 N3        30.23R
EUREKA           N/A     70  54  56 CALM      30.05R
HAMILTON         N/A     70  50  49 S7        30.07R
PLAINS           N/A     68  49  50 MISG      30.03R
RONAN            N/A     74  55  51 N7        30.08R
THOMPSON FALLS   N/A     68  46  45 CALM      30.06R
$$

MTZ008-052>055-020700-
SOUTHWEST MONTANA

CITY           SKY/WX    TMP DP  RH WIND       PRES   REMARKS
BOZEMAN        CLEAR     68  52  56 W10       30.14R
DILLON         CLEAR     65  49  56 E8        30.15R
W YELLOWSTONE  CLEAR     55  45  67 NW6       30.25R
THREE FORKS      N/A     74  57  55 E1        30.13R
TWIN BRIDGES     N/A     71  49  45 N17       30.10R
$$

MTZ009-010-012-014-046-048-049-054-020700-
EAST SLOPES AND CENTRAL MONTANA

CITY           SKY/WX    TMP DP  RH WIND       PRES   REMARKS
CUT BANK       CLEAR     58  50  75 N9        30.21S
GREAT FALLS    PTCLDY    67  51  56 N9        30.18R
MALMSTROM AFB  MOCLDY    68  52  56 NE9       30.18R
HELENA         CLEAR     71  53  52 NW6       30.15R
CONRAD           N/A     60  56  87 CALM      30.21S
$$

MTZ011-013-016-021-045-047-050-051-020700-
NORTH CENTRAL MONTANA

CITY           SKY/WX    TMP DP  RH WIND       PRES   REMARKS
HAVRE          CLEAR     58  53  84 W6        30.12R
LEWISTOWN      PTCLDY    66  53  63 CALM      30.19R
CHINOOK          N/A     63  57  82 SW3       30.10R
FORT BENTON      N/A     68  54  60 NW3       30.16R
$$

MTZ017>020-022>027-061-062-020700-
NORTHEAST MONTANA

CITY           SKY/WX    TMP DP  RH WIND       PRES   REMARKS
GLASGOW        CLEAR     59  51  75 MISG      30.05S
JORDAN           N/A     64  54  69 N9        30.08R
SIDNEY         CLOUDY    64  57  77 CALM      30.03R
WOLF POINT     CLEAR     60  57  89 W6        30.02R
MALTA            N/A     60  54  80 CALM      30.04S
PLENTYWOOD       N/A     57  54  88 W5        30.00S
SCOBEY           N/A     55  51  86 CALM      30.01S
$$

MTZ028>42-056>058-020700-
SOUTHCENTRAL AND SOUTHEAST MONTANA

CITY           SKY/WX    TMP DP  RH WIND       PRES   REMARKS
BAKER          CLEAR     59  57  93 CALM      30.05F
BILLINGS       PTCLDY    70  55  59 N5        30.15R
LIVINGSTON     CLEAR     67  54  63 E16       30.17R
MILES CITY     CLEAR     64  58  80 N3        30.04R
EKALAKA          N/A     61  55  80 CALM      30.04F
FORSYTH          N/A     66  64  94 W5        30.06R
LAUREL           N/A     66  51  58 NE2       30.12S
ROUNDUP          N/A     69  57  65 CALM      30.05R
$$

REGIONAL REPORTS...DAKOTAS

CITY           SKY/WX    TMP DP  RH WIND       PRES   REMARKS
WILLISTON      MOCLDY    64  60  87 NW3       29.99F
MINOT          CLOUDY    67  63  87 CALM      29.95F FOG
DICKINSON      PTCLDY    62  60  93 W6        29.99S FOG
BEACH          FAIR      54  54 100 CALM      30.05S
CROSBY         FAIR      63  63 100 W5        29.98S FOG
BISMARCK       CLOUDY    67  65  93 CALM      29.96S
GRAND FORKS    CLEAR     63  59  87 S6        29.94S
FARGO          CLEAR     63  56  78 S7        29.98R
BUFFALO SD       N/A     64  62  93 NE8       29.97S
RAPID CITY     TSTM      64  61  90 E15       29.99F FOG
$$

REGIONAL REPORTS...WYOMING/IDAHO/WASHINGTON

CITY           SKY/WX    TMP DP  RH WIND       PRES   REMARKS
GILLETTE       CLOUDY    61  58  90 CALM      30.12F
SHERIDAN       MOCLDY    67  56  67 W7        30.13F
BUFFALO WY     MOCLDY    64  57  78 W10       30.20F
CODY           CLEAR     68  50  52 NW13G18   30.19S
YELLOWSTONE LA   N/A     55  42  61 NW3       30.35S
IDAHO FALLS    PTCLDY    63  56  78 CALM      30.04R
SALMON         CLEAR     72  45  37 CALM      30.06R
BOISE          PTCLDY    82  37  20 SW7       29.93R
SPOKANE        CLEAR     81  44  27 NW7       29.99R
$$

REGIONAL REPORTS...ALBERTA

CITY           SKY/WX    TMP DP  RH WIND       PRES   REMARKS
EDMONTON       CLEAR     63  54  72 W5        30.09R
CALGARY        MOCLDY    68  54  60 N3        30.20R
LETHBRIDGE     CLEAR     59  54  82 W6        30.18R
MEDICINE HAT   CLEAR     61  55  82 SW5       30.12R
WATERTON GATE    N/A     54  50  87 CALM        N/A
CARDSTON         N/A     59  55  88 SW7         N/A
MILK RIVER       N/A     55  52  88 NW5         N/A
ONEFOUR          N/A     59  54  82 N9          N/A
$$

REGIONAL REPORTS...SASKATCHEWAN

CITY           SKY/WX    TMP DP  RH WIND       PRES   REMARKS
SWIFT CURRENT  CLEAR     61  59  94 W8        30.04S FOG
REGINA         LGT RAIN  64  61  88 N3        29.98S
SASKATOON      PTCLDY    59  57  94 W8        30.00S
CYPRESS HILLS    N/A     57  52  82 NW5         N/A
VAL MARIE        N/A     59  57  94 NW6         N/A
ROCKGLEN         N/A     59  55  88 NW10G17     N/A
$$



USA.gov is the U.S. government's official web portal to all federal, state and local government web resources and services.